| time (UTC) | temp F | wind direction | speed MPH | gust MPH | rain 1hr in | rain 24hr in | rain mn in | humidity % | barometer mb |
| 20260507132528 | 65 | 140 | 0.0 | 0.0 | 0.00 | 0.00 | 0.00 | 37 | 1015.0 |
| 20260507132025 | 64 | 148 | 0.0 | 0.0 | 0.00 | 0.00 | 0.00 | 38 | 1015.0 |
| 20260507131522 | 63 | 146 | 0.0 | 0.0 | 0.00 | 0.00 | 0.00 | 38 | 1015.0 |
| 20260507131019 | 63 | 155 | 0.0 | 0.0 | 0.00 | 0.00 | 0.00 | 39 | 1015.0 |
| 20260507130516 | 63 | 148 | 0.0 | 0.0 | 0.00 | 0.00 | 0.00 | 39 | 1014.9 |
| 20260507130014 | 63 | 160 | 0.0 | 0.0 | 0.00 | 0.00 | 0.00 | 39 | 1014.9 |
| 20260507125512 | 62 | 149 | 0.0 | 0.0 | 0.00 | 0.00 | 0.00 | 40 | 1014.8 |
| 20260507125011 | 61 | 154 | 0.0 | 0.0 | 0.00 | 0.00 | 0.00 | 41 | 1014.7 |
| 20260507124506 | 61 | 149 | 0.0 | 0.0 | 0.00 | 0.00 | 0.00 | 41 | 1014.8 |
| 20260507124004 | 61 | 149 | 0.0 | 0.0 | 0.00 | 0.00 | 0.00 | 41 | 1014.6 |
| 20260507123501 | 62 | 154 | 0.0 | 0.0 | 0.00 | 0.00 | 0.00 | 41 | 1014.7 |
| 20260507122957 | 62 | 154 | 0.0 | 0.0 | 0.00 | 0.00 | 0.00 | 39 | 1014.8 |
| 20260507122453 | 63 | 160 | 0.0 | 0.0 | 0.00 | 0.00 | 0.00 | 38 | 1014.7 |
| 20260507121949 | 63 | 146 | 0.0 | 0.0 | 0.00 | 0.00 | 0.00 | 38 | 1014.6 |
| 20260507121445 | 63 | 143 | 0.0 | 0.0 | 0.00 | 0.00 | 0.00 | 37 | 1014.7 |
| 20260507120941 | 63 | 158 | 0.0 | 0.0 | 0.00 | 0.00 | 0.00 | 37 | 1014.9 |
| 20260507120438 | 63 | 148 | 0.0 | 0.0 | 0.00 | 0.00 | 0.00 | 38 | 1014.8 |
| 20260507115935 | 63 | 144 | 0.0 | 0.0 | 0.00 | 0.00 | 0.00 | 37 | 1014.8 |
| 20260507115430 | 63 | 141 | 0.0 | 0.0 | 0.00 | 0.00 | 0.00 | 37 | 1014.7 |
| 20260507114927 | 63 | 151 | 0.0 | 0.0 | 0.00 | 0.00 | 0.00 | 38 | 1014.9 |
| 20260507114423 | 63 | 152 | 0.0 | 0.0 | 0.00 | 0.00 | 0.00 | 37 | 1015.1 |
| 20260507113920 | 64 | 155 | 0.0 | 0.0 | 0.00 | 0.00 | 0.00 | 36 | 1014.9 |
| 20260507113417 | 64 | 158 | 0.0 | 0.0 | 0.00 | 0.00 | 0.00 | 36 | 1014.8 |
| 20260507112914 | 64 | 155 | 0.0 | 0.0 | 0.00 | 0.00 | 0.00 | 36 | 1014.9 |
| 20260507112412 | 64 | 151 | 0.0 | 0.0 | 0.00 | 0.00 | 0.00 | 36 | 1015.0 |
| 20260507111909 | 64 | 155 | 0.0 | 0.0 | 0.00 | 0.00 | 0.00 | 36 | 1015.0 |
| 20260507111406 | 65 | 155 | 0.0 | 0.0 | 0.00 | 0.00 | 0.00 | 35 | 1014.9 |
| 20260507110902 | 65 | 140 | 0.0 | 0.0 | 0.00 | 0.00 | 0.00 | 34 | 1014.8 |
| 20260507110358 | 65 | 125 | 0.0 | 1.0 | 0.00 | 0.00 | 0.00 | 35 | 1015.1 |
| 20260507105855 | 64 | 157 | 0.0 | 0.0 | 0.00 | 0.00 | 0.00 | 35 | 1015.3 |
| 20260507105352 | 64 | 154 | 0.0 | 0.0 | 0.00 | 0.00 | 0.00 | 36 | 1015.1 |
| 20260507104849 | 64 | 146 | 0.0 | 0.0 | 0.00 | 0.00 | 0.00 | 36 | 1015.2 |
| 20260507104345 | 64 | 145 | 0.0 | 0.0 | 0.00 | 0.00 | 0.00 | 37 | 1015.2 |
| 20260507103841 | 63 | 146 | 0.0 | 0.0 | 0.00 | 0.00 | 0.00 | 39 | 1015.2 |
| 20260507103338 | 64 | 147 | 0.0 | 0.0 | 0.00 | 0.00 | 0.00 | 40 | 1015.2 |
| 20260507102835 | 64 | 151 | 0.0 | 0.0 | 0.00 | 0.00 | 0.00 | 38 | 1015.2 |
| 20260507102331 | 64 | 146 | 0.0 | 0.0 | 0.00 | 0.00 | 0.00 | 38 | 1015.1 |
| 20260507101828 | 64 | 120 | 0.0 | 0.0 | 0.00 | 0.00 | 0.00 | 38 | 1015.2 |
| 20260507101327 | 64 | 116 | 0.0 | 0.0 | 0.00 | 0.00 | 0.00 | 38 | 1015.1 |
| 20260507100825 | 64 | 121 | 0.0 | 0.0 | 0.00 | 0.00 | 0.00 | 37 | 1015.1 |
| 20260507100323 | 64 | 110 | 0.0 | 0.0 | 0.00 | 0.00 | 0.00 | 39 | 1015.1 |
| 20260507095821 | 64 | 103 | 0.0 | 0.0 | 0.00 | 0.00 | 0.00 | 38 | 1015.2 |
| 20260507095317 | 64 | 103 | 0.0 | 0.0 | 0.00 | 0.00 | 0.00 | 38 | 1015.2 |
| 20260507094814 | 64 | 102 | 0.0 | 0.0 | 0.00 | 0.00 | 0.00 | 38 | 1015.2 |
| 20260507094311 | 65 | 114 | 0.0 | 1.0 | 0.00 | 0.00 | 0.00 | 38 | 1015.3 |
| 20260507093808 | 65 | 213 | 0.0 | 1.0 | 0.00 | 0.00 | 0.00 | 39 | 1015.3 |
| 20260507093306 | 64 | 216 | 1.0 | 1.0 | 0.00 | 0.00 | 0.00 | 39 | 1015.1 |
| 20260507092804 | 64 | 198 | 1.0 | 1.0 | 0.00 | 0.00 | 0.00 | 40 | 1015.2 |
| 20260507092300 | 65 | 167 | 0.0 | 1.0 | 0.00 | 0.00 | 0.00 | 41 | 1015.1 |
| 20260507091756 | 65 | 156 | 0.0 | 0.0 | 0.00 | 0.00 | 0.00 | 38 | 1015.3 |
| 20260507091253 | 65 | 168 | 0.0 | 0.0 | 0.00 | 0.00 | 0.00 | 37 | 1015.3 |
| 20260507090753 | 66 | 170 | 0.0 | 0.0 | 0.00 | 0.00 | 0.00 | 37 | 1015.3 |
| 20260507090250 | 65 | 172 | 0.0 | 0.0 | 0.00 | 0.00 | 0.00 | 36 | 1015.4 |
| 20260507085747 | 64 | 168 | 0.0 | 0.0 | 0.00 | 0.00 | 0.00 | 40 | 1015.4 |
| 20260507085244 | 64 | 165 | 0.0 | 0.0 | 0.00 | 0.00 | 0.00 | 37 | 1015.2 |
| 20260507084742 | 65 | 165 | 0.0 | 0.0 | 0.00 | 0.00 | 0.00 | 35 | 1015.3 |
| 20260507084238 | 65 | 165 | 0.0 | 0.0 | 0.00 | 0.00 | 0.00 | 34 | 1015.2 |
| 20260507083735 | 65 | 160 | 0.0 | 0.0 | 0.00 | 0.00 | 0.00 | 35 | 1015.3 |
| 20260507083232 | 65 | 159 | 0.0 | 0.0 | 0.00 | 0.00 | 0.00 | 36 | 1015.3 |
| 20260507082728 | 65 | 170 | 0.0 | 0.0 | 0.00 | 0.00 | 0.00 | 35 | 1015.5 |
| 20260507082224 | 66 | 170 | 0.0 | 0.0 | 0.00 | 0.00 | 0.00 | 34 | 1015.4 |
| 20260507081721 | 66 | 171 | 0.0 | 0.0 | 0.00 | 0.00 | 0.00 | 34 | 1015.4 |
| 20260507081217 | 66 | 170 | 0.0 | 0.0 | 0.00 | 0.00 | 0.00 | 34 | 1015.5 |
| 20260507080714 | 66 | 165 | 0.0 | 0.0 | 0.00 | 0.00 | 0.00 | 35 | 1015.8 |
| 20260507080210 | 65 | 160 | 0.0 | 0.0 | 0.00 | 0.00 | 0.00 | 36 | 1015.7 |
| 20260507075705 | 65 | 160 | 0.0 | 0.0 | 0.00 | 0.00 | 0.00 | 36 | 1015.6 |
| 20260507075202 | 65 | 153 | 0.0 | 0.0 | 0.00 | 0.00 | 0.00 | 39 | 1015.7 |
| 20260507074658 | 65 | 158 | 0.0 | 0.0 | 0.00 | 0.00 | 0.00 | 40 | 1015.6 |
| 20260507074157 | 65 | 146 | 0.0 | 0.0 | 0.00 | 0.00 | 0.00 | 39 | 1015.7 |
| 20260507073653 | 65 | 158 | 0.0 | 0.0 | 0.00 | 0.00 | 0.00 | 39 | 1015.6 |
| 20260507073149 | 64 | 155 | 0.0 | 0.0 | 0.00 | 0.00 | 0.00 | 43 | 1015.8 |
| 20260507072647 | 65 | 170 | 0.0 | 0.0 | 0.00 | 0.00 | 0.00 | 39 | 1015.7 |
| 20260507072144 | 65 | 170 | 0.0 | 0.0 | 0.00 | 0.00 | 0.00 | 38 | 1015.6 |
| 20260507071642 | 65 | 160 | 0.0 | 0.0 | 0.00 | 0.00 | 0.00 | 38 | 1015.4 |
| 20260507071138 | 65 | 160 | 0.0 | 0.0 | 0.00 | 0.00 | 0.00 | 39 | 1015.5 |
| 20260507070635 | 65 | 160 | 0.0 | 0.0 | 0.00 | 0.00 | 0.00 | 39 | 1015.7 |
| 20260507070132 | 66 | 147 | 0.0 | 0.0 | 0.00 | 0.00 | 0.00 | 41 | 1015.7 |
| 20260507065628 | 66 | 156 | 0.0 | 0.0 | 0.00 | 0.00 | 0.00 | 39 | 1015.8 |
| 20260507065125 | 66 | 170 | 0.0 | 0.0 | 0.00 | 0.00 | 0.00 | 40 | 1015.8 |
| 20260507064623 | 66 | 170 | 0.0 | 0.0 | 0.00 | 0.00 | 0.00 | 38 | 1015.8 |
| 20260507064121 | 66 | 170 | 0.0 | 0.0 | 0.00 | 0.00 | 0.00 | 35 | 1015.5 |
| 20260507063618 | 67 | 170 | 0.0 | 0.0 | 0.00 | 0.00 | 0.00 | 35 | 1015.6 |
| 20260507063115 | 68 | 170 | 0.0 | 0.0 | 0.00 | 0.00 | 0.00 | 35 | 1015.7 |
| 20260507062612 | 68 | 170 | 0.0 | 0.0 | 0.00 | 0.00 | 0.00 | 35 | 1015.8 |
| 20260507062110 | 69 | 180 | 0.0 | 0.0 | 0.00 | 0.00 | 0.00 | 32 | 1015.7 |
| 20260507061607 | 69 | 168 | 0.0 | 0.0 | 0.00 | 0.00 | 0.00 | 33 | 1015.7 |
| 20260507061105 | 68 | 175 | 0.0 | 0.0 | 0.00 | 0.00 | 0.00 | 34 | 1015.7 |
| 20260507060603 | 68 | 164 | 0.0 | 0.0 | 0.00 | 0.00 | 0.00 | 34 | 1015.4 |
| 20260507060059 | 68 | 164 | 0.0 | 0.0 | 0.00 | 0.00 | 0.00 | 34 | 1015.5 |
| 20260507055554 | 69 | 160 | 0.0 | 0.0 | 0.00 | 0.00 | 0.00 | 34 | 1015.6 |
| 20260507055051 | 69 | 154 | 0.0 | 0.0 | 0.00 | 0.00 | 0.00 | 33 | 1015.6 |
| 20260507054547 | 70 | 170 | 0.0 | 0.0 | 0.00 | 0.00 | 0.00 | 32 | 1015.5 |
| 20260507054044 | 70 | 170 | 0.0 | 0.0 | 0.00 | 0.00 | 0.00 | 32 | 1015.5 |
| 20260507053542 | 70 | 171 | 0.0 | 0.0 | 0.00 | 0.00 | 0.00 | 33 | 1015.7 |
| 20260507053040 | 70 | 170 | 0.0 | 0.0 | 0.00 | 0.00 | 0.00 | 34 | 1015.7 |
| 20260507052538 | 70 | 170 | 0.0 | 0.0 | 0.00 | 0.00 | 0.00 | 34 | 1015.6 |
| 20260507052034 | 71 | 181 | 1.0 | 1.0 | 0.00 | 0.00 | 0.00 | 33 | 1015.5 |
| 20260507051532 | 71 | 175 | 0.0 | 0.0 | 0.00 | 0.00 | 0.00 | 33 | 1015.6 |
| 20260507051029 | 71 | 172 | 0.0 | 0.0 | 0.00 | 0.00 | 0.00 | 33 | 1015.4 |
| 20260507050525 | 71 | 170 | 0.0 | 0.0 | 0.00 | 0.00 | 0.00 | 33 | 1015.7 |
| 20260507050022 | 71 | 172 | 0.0 | 0.0 | 0.00 | 0.00 | 0.00 | 32 | 1015.4 |
| 20260507045518 | 71 | 170 | 0.0 | 0.0 | 0.00 | 0.00 | 0.00 | 33 | 1015.5 |
| 20260507045016 | 71 | 170 | 0.0 | 0.0 | 0.00 | 0.00 | 0.00 | 33 | 1015.3 |
| 20260507044512 | 72 | 169 | 0.0 | 0.0 | 0.00 | 0.00 | 0.00 | 33 | 1015.3 |
| 20260507044009 | 72 | 174 | 0.0 | 0.0 | 0.00 | 0.00 | 0.00 | 32 | 1015.3 |
| 20260507043505 | 71 | 185 | 0.0 | 1.0 | 0.00 | 0.00 | 0.00 | 33 | 1015.2 |
| 20260507043002 | 71 | 172 | 0.0 | 0.0 | 0.00 | 0.00 | 0.00 | 34 | 1015.2 |
| 20260507042458 | 71 | 159 | 0.0 | 0.0 | 0.00 | 0.00 | 0.00 | 34 | 1015.1 |
| 20260507041954 | 72 | 168 | 0.0 | 0.0 | 0.00 | 0.00 | 0.00 | 35 | 1015.0 |
| 20260507041451 | 72 | 168 | 0.0 | 0.0 | 0.00 | 0.00 | 0.00 | 34 | 1015.1 |
| 20260507040948 | 72 | 172 | 1.0 | 1.0 | 0.00 | 0.00 | 0.00 | 34 | 1015.2 |
| 20260507040443 | 72 | 198 | 0.0 | 1.0 | 0.00 | 0.00 | 0.00 | 34 | 1015.1 |
| 20260507035940 | 72 | 165 | 0.0 | 1.0 | 0.00 | 0.00 | 0.00 | 34 | 1014.9 |
| 20260507035436 | 73 | 175 | 0.0 | 1.0 | 0.00 | 0.00 | 0.00 | 33 | 1014.8 |
| 20260507034933 | 73 | 167 | 0.0 | 0.0 | 0.00 | 0.00 | 0.00 | 32 | 1014.8 |
| 20260507034430 | 73 | 169 | 0.0 | 0.0 | 0.00 | 0.00 | 0.00 | 32 | 1014.7 |
| 20260507033928 | 74 | 163 | 0.0 | 0.0 | 0.00 | 0.00 | 0.00 | 32 | 1014.7 |
| 20260507033426 | 74 | 160 | 0.0 | 0.0 | 0.00 | 0.00 | 0.00 | 31 | 1014.7 |
| 20260507032922 | 75 | 166 | 0.0 | 0.0 | 0.00 | 0.00 | 0.00 | 32 | 1014.4 |
| 20260507032420 | 75 | 183 | 0.0 | 1.0 | 0.00 | 0.00 | 0.00 | 31 | 1014.4 |
| 20260507031915 | 76 | 167 | 0.0 | 0.0 | 0.00 | 0.00 | 0.00 | 30 | 1014.3 |
| 20260507031412 | 77 | 185 | 1.0 | 1.0 | 0.00 | 0.00 | 0.00 | 27 | 1014.0 |
| 20260507030909 | 77 | 166 | 0.0 | 0.0 | 0.00 | 0.00 | 0.00 | 28 | 1014.3 |
| 20260507030406 | 77 | 169 | 0.0 | 0.0 | 0.00 | 0.00 | 0.00 | 28 | 1014.1 |
| 20260507025903 | 77 | 174 | 0.0 | 1.0 | 0.00 | 0.00 | 0.00 | 28 | 1014.2 |
| 20260507025401 | 77 | 182 | 0.0 | 1.0 | 0.00 | 0.00 | 0.00 | 27 | 1014.1 |
| 20260507024858 | 78 | 173 | 0.0 | 1.0 | 0.00 | 0.00 | 0.00 | 27 | 1013.9 |
| 20260507024355 | 78 | 167 | 0.0 | 0.0 | 0.00 | 0.00 | 0.00 | 27 | 1013.7 |
| 20260507023851 | 78 | 169 | 0.0 | 0.0 | 0.00 | 0.00 | 0.00 | 27 | 1013.8 |
| 20260507023348 | 78 | 167 | 0.0 | 0.0 | 0.00 | 0.00 | 0.00 | 28 | 1014.0 |
| 20260507022845 | 79 | 152 | 0.0 | 0.0 | 0.00 | 0.00 | 0.00 | 28 | 1013.7 |
| 20260507022342 | 79 | 161 | 0.0 | 1.0 | 0.00 | 0.00 | 0.00 | 28 | 1014.2 |
| 20260507021838 | 80 | 194 | 0.0 | 1.0 | 0.00 | 0.00 | 0.00 | 27 | 1013.8 |
| 20260507021333 | 80 | 163 | 0.0 | 0.0 | 0.00 | 0.00 | 0.00 | 27 | 1013.8 |
| 20260507020831 | 80 | 193 | 0.0 | 1.0 | 0.00 | 0.00 | 0.00 | 27 | 1014.0 |
| 20260507020328 | 81 | 166 | 0.0 | 0.0 | 0.00 | 0.00 | 0.00 | 25 | 1013.7 |
| 20260507015825 | 81 | 201 | 0.0 | 0.0 | 0.00 | 0.00 | 0.00 | 24 | 1013.9 |
| 20260507015323 | 81 | 161 | 0.0 | 0.0 | 0.00 | 0.00 | 0.00 | 24 | 1013.7 |
| 20260507014820 | 82 | 136 | 1.0 | 1.0 | 0.00 | 0.00 | 0.00 | 24 | 1013.7 |
| 20260507014316 | 82 | 163 | 1.0 | 1.0 | 0.00 | 0.00 | 0.00 | 24 | 1013.8 |
| 20260507013812 | 83 | 173 | 0.0 | 1.0 | 0.00 | 0.00 | 0.00 | 25 | 1013.7 |
| 20260507013310 | 84 | 161 | 0.0 | 0.0 | 0.00 | 0.00 | 0.00 | 25 | 1013.5 |
| 20260507012807 | 85 | 159 | 0.0 | 0.0 | 0.00 | 0.00 | 0.00 | 24 | 1013.9 |
| 20260507012306 | 86 | 155 | 0.0 | 1.0 | 0.00 | 0.00 | 0.00 | 23 | 1013.4 |
| 20260507011800 | 86 | 162 | 0.0 | 0.0 | 0.00 | 0.00 | 0.00 | 24 | 1013.9 |
| 20260507011257 | 86 | 78 | 0.0 | 0.0 | 0.00 | 0.00 | 0.00 | 23 | 1013.5 |
| 20260507010756 | 86 | 160 | 0.0 | 1.0 | 0.00 | 0.00 | 0.00 | 21 | 1013.3 |
| 20260507010252 | 87 | 228 | 1.0 | 2.0 | 0.00 | 0.00 | 0.00 | 22 | 1013.7 |
| 20260507005750 | 86 | 194 | 0.0 | 0.0 | 0.00 | 0.00 | 0.00 | 20 | 1013.7 |
| 20260507005246 | 87 | 225 | 3.0 | 3.0 | 0.00 | 0.00 | 0.00 | 20 | 1013.5 |
| 20260507004743 | 87 | 175 | 1.0 | 1.0 | 0.00 | 0.00 | 0.00 | 19 | 1013.8 |
| 20260507004241 | 87 | 228 | 2.0 | 2.0 | 0.00 | 0.00 | 0.00 | 20 | 1013.7 |
| 20260507003736 | 86 | 188 | 1.0 | 2.0 | 0.00 | 0.00 | 0.00 | 20 | 1013.7 |
| 20260507003232 | 86 | 175 | 1.0 | 1.0 | 0.00 | 0.00 | 0.00 | 20 | 1013.5 |
| 20260507002728 | 88 | 242 | 2.0 | 2.0 | 0.00 | 0.00 | 0.00 | 20 | 1013.7 |
| 20260507002224 | 87 | 253 | 2.0 | 2.0 | 0.00 | 0.00 | 0.00 | 20 | 1013.9 |
| 20260507001721 | 87 | 221 | 0.0 | 1.0 | 0.00 | 0.00 | 0.00 | 20 | 1013.5 |
| 20260507001219 | 88 | 166 | 1.0 | 1.0 | 0.00 | 0.00 | 0.00 | 20 | 1013.7 |
| 20260507000715 | 88 | 102 | 0.0 | 1.0 | 0.00 | 0.00 | 0.00 | 20 | 1013.8 |
| 20260507000212 | 88 | 145 | 1.0 | 1.0 | 0.00 | 0.00 | 0.00 | 20 | 1013.5 |
| 20260506235708 | 88 | 160 | 1.0 | 2.0 | 0.00 | 0.00 | 0.00 | 19 | 1013.9 |
| 20260506235203 | 88 | 163 | 1.0 | 1.0 | 0.00 | 0.00 | 0.00 | 21 | 1013.8 |
| 20260506234700 | 89 | 145 | 1.0 | 2.0 | 0.00 | 0.00 | 0.00 | 20 | 1013.9 |
| 20260506234157 | 88 | 228 | 1.0 | 2.0 | 0.00 | 0.00 | 0.00 | 20 | 1013.8 |
| 20260506233655 | 88 | 102 | 1.0 | 2.0 | 0.00 | 0.00 | 0.00 | 20 | 1013.8 |
| 20260506233151 | 88 | 22 | 1.0 | 2.0 | 0.00 | 0.00 | 0.00 | 21 | 1013.8 |
| 20260506232648 | 87 | 219 | 2.0 | 2.0 | 0.00 | 0.00 | 0.00 | 21 | 1014.1 |
| 20260506232143 | 87 | 212 | 2.0 | 3.0 | 0.00 | 0.00 | 0.00 | 20 | 1013.8 |
| 20260506231640 | 87 | 279 | 3.0 | 5.0 | 0.00 | 0.00 | 0.00 | 20 | 1014.0 |
| 20260506231139 | 89 | 185 | 1.0 | 1.0 | 0.00 | 0.00 | 0.00 | 20 | 1014.2 |
| 20260506230635 | 88 | 103 | 1.0 | 1.0 | 0.00 | 0.00 | 0.00 | 21 | 1014.3 |
| 20260506230132 | 87 | 150 | 0.0 | 1.0 | 0.00 | 0.00 | 0.00 | 20 | 1014.2 |
| 20260506225628 | 88 | 196 | 1.0 | 1.0 | 0.00 | 0.00 | 0.00 | 21 | 1014.4 |
| 20260506225125 | 88 | 238 | 1.0 | 1.0 | 0.00 | 0.00 | 0.00 | 21 | 1014.4 |
| 20260506224622 | 88 | 172 | 0.0 | 1.0 | 0.00 | 0.00 | 0.00 | 22 | 1014.3 |
| 20260506224118 | 88 | 177 | 2.0 | 3.0 | 0.00 | 0.00 | 0.00 | 22 | 1014.4 |
| 20260506223615 | 88 | 173 | 0.0 | 1.0 | 0.00 | 0.00 | 0.00 | 22 | 1014.5 |
| 20260506223111 | 88 | 156 | 0.0 | 1.0 | 0.00 | 0.00 | 0.00 | 21 | 1014.5 |
| 20260506222608 | 88 | 174 | 2.0 | 2.0 | 0.00 | 0.00 | 0.00 | 20 | 1014.8 |
| 20260506222104 | 87 | 179 | 1.0 | 1.0 | 0.00 | 0.00 | 0.00 | 21 | 1014.6 |
| 20260506221602 | 85 | 183 | 0.0 | 1.0 | 0.00 | 0.00 | 0.00 | 22 | 1014.7 |
| 20260506221100 | 85 | 206 | 3.0 | 3.0 | 0.00 | 0.00 | 0.00 | 21 | 1014.9 |
| 20260506220556 | 86 | 231 | 4.0 | 5.0 | 0.00 | 0.00 | 0.00 | 21 | 1015.1 |
| 20260506220051 | 86 | 95 | 1.0 | 1.0 | 0.00 | 0.00 | 0.00 | 22 | 1014.9 |
| 20260506215548 | 86 | 164 | 2.0 | 2.0 | 0.00 | 0.00 | 0.00 | 22 | 1015.0 |
| 20260506215044 | 86 | 145 | 2.0 | 2.0 | 0.00 | 0.00 | 0.00 | 21 | 1015.3 |
| 20260506214541 | 86 | 210 | 1.0 | 1.0 | 0.00 | 0.00 | 0.00 | 20 | 1015.3 |
| 20260506214038 | 86 | 49 | 3.0 | 3.0 | 0.00 | 0.00 | 0.00 | 21 | 1015.5 |
| 20260506213536 | 86 | 148 | 1.0 | 1.0 | 0.00 | 0.00 | 0.00 | 22 | 1015.5 |
| 20260506213033 | 85 | 218 | 3.0 | 3.0 | 0.00 | 0.00 | 0.00 | 20 | 1015.7 |
| 20260506212530 | 86 | 218 | 2.0 | 2.0 | 0.00 | 0.00 | 0.00 | 20 | 1015.6 |
| 20260506212025 | 86 | 176 | 2.0 | 2.0 | 0.00 | 0.00 | 0.00 | 20 | 1015.6 |
| 20260506211521 | 87 | 185 | 2.0 | 2.0 | 0.00 | 0.00 | 0.00 | 20 | 1015.7 |
| 20260506211018 | 86 | 166 | 1.0 | 1.0 | 0.00 | 0.00 | 0.00 | 23 | 1015.8 |
| 20260506210515 | 86 | 136 | 1.0 | 1.0 | 0.00 | 0.00 | 0.00 | 24 | 1015.9 |
| 20260506210011 | 84 | 217 | 0.0 | 1.0 | 0.00 | 0.00 | 0.00 | 21 | 1015.9 |
| 20260506205508 | 84 | 199 | 1.0 | 2.0 | 0.00 | 0.00 | 0.00 | 23 | 1016.1 |
| 20260506205003 | 85 | 162 | 1.0 | 1.0 | 0.00 | 0.00 | 0.00 | 21 | 1016.2 |
| 20260506204502 | 84 | 178 | 1.0 | 1.0 | 0.00 | 0.00 | 0.00 | 21 | 1016.1 |
| 20260506203958 | 85 | 166 | 1.0 | 1.0 | 0.00 | 0.00 | 0.00 | 20 | 1016.3 |
| 20260506203456 | 85 | 214 | 1.0 | 1.0 | 0.00 | 0.00 | 0.00 | 21 | 1016.3 |
| 20260506202953 | 84 | 139 | 1.0 | 1.0 | 0.00 | 0.00 | 0.00 | 22 | 1016.4 |
| 20260506202450 | 82 | 201 | 0.0 | 1.0 | 0.00 | 0.00 | 0.00 | 21 | 1016.5 |
| 20260506201946 | 83 | 239 | 2.0 | 3.0 | 0.00 | 0.00 | 0.00 | 22 | 1016.1 |
| 20260506201444 | 83 | 224 | 2.0 | 3.0 | 0.00 | 0.00 | 0.00 | 20 | 1016.4 |
| 20260506200940 | 82 | 231 | 1.0 | 2.0 | 0.00 | 0.00 | 0.00 | 21 | 1016.5 |
| 20260506200437 | 82 | 193 | 3.0 | 5.0 | 0.00 | 0.00 | 0.00 | 20 | 1016.6 |
| 20260506195933 | 83 | 183 | 1.0 | 1.0 | 0.00 | 0.00 | 0.00 | 22 | 1016.6 |
| 20260506195430 | 83 | 156 | 1.0 | 2.0 | 0.00 | 0.00 | 0.00 | 23 | 1016.6 |
| 20260506194927 | 82 | 346 | 2.0 | 2.0 | 0.00 | 0.00 | 0.00 | 22 | 1016.6 |
| 20260506194424 | 82 | 188 | 1.0 | 1.0 | 0.00 | 0.00 | 0.00 | 23 | 1016.7 |
| 20260506193921 | 82 | 213 | 2.0 | 2.0 | 0.00 | 0.00 | 0.00 | 21 | 1017.0 |
| 20260506193418 | 81 | 159 | 0.0 | 0.0 | 0.00 | 0.00 | 0.00 | 22 | 1016.7 |
| 20260506192914 | 81 | 167 | 1.0 | 1.0 | 0.00 | 0.00 | 0.00 | 22 | 1017.1 |
| 20260506192411 | 82 | 195 | 1.0 | 2.0 | 0.00 | 0.00 | 0.00 | 22 | 1017.3 |
| 20260506191908 | 82 | 156 | 2.0 | 2.0 | 0.00 | 0.00 | 0.00 | 23 | 1017.0 |
| 20260506191404 | 83 | 106 | 1.0 | 1.0 | 0.00 | 0.00 | 0.00 | 23 | 1017.1 |
| 20260506190902 | 81 | 155 | 2.0 | 2.0 | 0.00 | 0.00 | 0.00 | 24 | 1017.3 |
| 20260506190358 | 81 | 153 | 1.0 | 1.0 | 0.00 | 0.00 | 0.00 | 24 | 1017.1 |
| 20260506185855 | 82 | 187 | 1.0 | 2.0 | 0.00 | 0.00 | 0.00 | 24 | 1017.0 |
| 20260506185352 | 82 | 125 | 1.0 | 2.0 | 0.00 | 0.00 | 0.00 | 24 | 1017.0 |
| 20260506184849 | 81 | 127 | 1.0 | 2.0 | 0.00 | 0.00 | 0.00 | 24 | 1017.5 |
| 20260506184346 | 81 | 50 | 1.0 | 2.0 | 0.00 | 0.00 | 0.00 | 25 | 1017.3 |
| 20260506183843 | 82 | 209 | 2.0 | 2.0 | 0.00 | 0.00 | 0.00 | 25 | 1017.5 |
| 20260506183338 | 81 | 167 | 0.0 | 0.0 | 0.00 | 0.00 | 0.00 | 25 | 1017.6 |
| 20260506182836 | 80 | 152 | 1.0 | 1.0 | 0.00 | 0.00 | 0.00 | 25 | 1018.0 |
| 20260506182333 | 80 | 158 | 1.0 | 1.0 | 0.00 | 0.00 | 0.00 | 27 | 1017.7 |
| 20260506181831 | 80 | 198 | 2.0 | 3.0 | 0.00 | 0.00 | 0.00 | 28 | 1017.8 |
| 20260506181329 | 78 | 192 | 1.0 | 1.0 | 0.00 | 0.00 | 0.00 | 28 | 1017.9 |
| 20260506180825 | 78 | 218 | 1.0 | 2.0 | 0.00 | 0.00 | 0.00 | 29 | 1017.9 |
| 20260506180321 | 78 | 178 | 0.0 | 1.0 | 0.00 | 0.00 | 0.00 | 28 | 1017.8 |
| 20260506175818 | 78 | 239 | 3.0 | 3.0 | 0.00 | 0.00 | 0.00 | 27 | 1017.9 |
| 20260506175315 | 78 | 204 | 1.0 | 2.0 | 0.00 | 0.00 | 0.00 | 28 | 1017.8 |
| 20260506174812 | 79 | 156 | 2.0 | 2.0 | 0.00 | 0.00 | 0.00 | 29 | 1017.9 |
| 20260506174309 | 78 | 118 | 2.0 | 2.0 | 0.00 | 0.00 | 0.00 | 29 | 1017.9 |
| 20260506173807 | 78 | 217 | 3.0 | 5.0 | 0.00 | 0.00 | 0.00 | 29 | 1017.9 |
| 20260506173303 | 77 | 146 | 1.0 | 2.0 | 0.00 | 0.00 | 0.00 | 30 | 1017.8 |
| 20260506172800 | 77 | 170 | 2.0 | 2.0 | 0.00 | 0.00 | 0.00 | 31 | 1017.8 |
| 20260506172257 | 78 | 167 | 1.0 | 1.0 | 0.00 | 0.00 | 0.00 | 31 | 1017.9 |
| 20260506171755 | 76 | 228 | 3.0 | 3.0 | 0.00 | 0.00 | 0.00 | 31 | 1017.9 |
| 20260506171251 | 76 | 206 | 3.0 | 3.0 | 0.00 | 0.00 | 0.00 | 31 | 1017.9 |
| 20260506170749 | 76 | 249 | 2.0 | 2.0 | 0.00 | 0.00 | 0.00 | 31 | 1017.8 |
| 20260506170245 | 75 | 254 | 1.0 | 1.0 | 0.00 | 0.00 | 0.00 | 32 | 1018.1 |
| 20260506165744 | 74 | 218 | 1.0 | 1.0 | 0.00 | 0.00 | 0.00 | 33 | 1017.6 |
| 20260506165241 | 74 | 258 | 1.0 | 2.0 | 0.00 | 0.00 | 0.00 | 32 | 1017.7 |
| 20260506164738 | 74 | 149 | 0.0 | 1.0 | 0.00 | 0.00 | 0.00 | 33 | 1017.8 |
| 20260506164235 | 75 | 168 | 1.0 | 1.0 | 0.00 | 0.00 | 0.00 | 36 | 1017.8 |
| 20260506163732 | 73 | 241 | 3.0 | 5.0 | 0.00 | 0.00 | 0.00 | 35 | 1017.9 |
| 20260506163226 | 74 | 224 | 2.0 | 3.0 | 0.00 | 0.00 | 0.00 | 36 | 1017.8 |
| 20260506162722 | 73 | 204 | 0.0 | 1.0 | 0.00 | 0.00 | 0.00 | 35 | 1017.7 |
| 20260506162220 | 73 | 126 | 0.0 | 1.0 | 0.00 | 0.00 | 0.00 | 36 | 1017.9 |
| 20260506161717 | 73 | 219 | 3.0 | 3.0 | 0.00 | 0.00 | 0.00 | 37 | 1017.8 |
| 20260506161215 | 72 | 137 | 0.0 | 1.0 | 0.00 | 0.00 | 0.00 | 37 | 1017.6 |
| 20260506160712 | 71 | 201 | 0.0 | 0.0 | 0.00 | 0.00 | 0.00 | 38 | 1017.8 |
| 20260506160208 | 71 | 119 | 2.0 | 2.0 | 0.00 | 0.00 | 0.00 | 39 | 1017.8 |
| 20260506155707 | 69 | 225 | 2.0 | 2.0 | 0.00 | 0.00 | 0.00 | 40 | 1017.6 |
| 20260506155204 | 69 | 201 | 1.0 | 1.0 | 0.00 | 0.00 | 0.00 | 41 | 1017.7 |
| 20260506153311 | 68 | 216 | 1.0 | 2.0 | 0.00 | 0.00 | 0.00 | 43 | 1017.9 |
| 20260506152808 | 68 | 141 | 1.0 | 2.0 | 0.00 | 0.00 | 0.00 | 42 | 1017.9 |
| 20260506152306 | 67 | 150 | 1.0 | 1.0 | 0.00 | 0.00 | 0.00 | 42 | 1017.7 |
| 20260506151804 | 66 | 141 | 1.0 | 1.0 | 0.00 | 0.00 | 0.00 | 42 | 1017.9 |
| 20260506151301 | 66 | 216 | 1.0 | 3.0 | 0.00 | 0.00 | 0.00 | 43 | 1018.0 |
| 20260506150757 | 66 | 182 | 1.0 | 2.0 | 0.00 | 0.00 | 0.00 | 43 | 1017.9 |
| 20260506150303 | 65 | 217 | 1.0 | 2.0 | 0.00 | 0.00 | 0.00 | 43 | 1017.8 |
| 20260506145751 | 64 | 248 | 2.0 | 2.0 | 0.00 | 0.00 | 0.00 | 44 | 1018.0 |
| 20260506145248 | 64 | 207 | 1.0 | 1.0 | 0.00 | 0.00 | 0.00 | 44 | 1017.7 |
| 20260506144745 | 64 | 208 | 3.0 | 3.0 | 0.00 | 0.00 | 0.00 | 45 | 1017.8 |
| 20260506144242 | 63 | 154 | 0.0 | 1.0 | 0.00 | 0.00 | 0.00 | 47 | 1017.5 |
| 20260506143740 | 62 | 226 | 2.0 | 2.0 | 0.00 | 0.00 | 0.00 | 46 | 1017.7 |
| 20260506143237 | 62 | 197 | 1.0 | 1.0 | 0.00 | 0.00 | 0.00 | 46 | 1017.7 |
| 20260506142735 | 62 | 172 | 1.0 | 2.0 | 0.00 | 0.00 | 0.00 | 45 | 1017.8 |
| 20260506142233 | 62 | 190 | 0.0 | 1.0 | 0.00 | 0.00 | 0.00 | 45 | 1017.7 |
| 20260506141731 | 62 | 223 | 1.0 | 1.0 | 0.00 | 0.00 | 0.00 | 46 | 1017.6 |
| 20260506141229 | 61 | 220 | 1.0 | 1.0 | 0.00 | 0.00 | 0.00 | 45 | 1017.6 |
| 20260506140726 | 61 | 220 | 1.0 | 1.0 | 0.00 | 0.00 | 0.00 | 47 | 1017.6 |
| 20260506140223 | 60 | 231 | 1.0 | 1.0 | 0.00 | 0.00 | 0.00 | 47 | 1017.5 |
| 20260506135720 | 60 | 220 | 1.0 | 2.0 | 0.00 | 0.00 | 0.00 | 47 | 1017.3 |
| 20260506135216 | 60 | 184 | 1.0 | 1.0 | 0.00 | 0.00 | 0.00 | 48 | 1017.1 |
| 20260506134713 | 59 | 207 | 0.0 | 0.0 | 0.00 | 0.00 | 0.00 | 49 | 1017.3 |
| 20260506134209 | 58 | 164 | 0.0 | 1.0 | 0.00 | 0.00 | 0.00 | 50 | 1017.0 |
| 20260506133707 | 58 | 211 | 0.0 | 0.0 | 0.00 | 0.00 | 0.00 | 51 | 1016.9 |
| 20260506133203 | 57 | 198 | 0.0 | 0.0 | 0.00 | 0.00 | 0.00 | 51 | 1017.0 |